QPF
0.01 0.01 0.00 0.01 0.01 0.03 0.04 0.03 0.04 0.05 0.05 0.04 0.03 0.03 0.02 0.01 0.01 0.01 0.02 0.02 0.02 0.03 0.03 0.03 0.03 0.03 0.03 0.03 0.02 0.02 0.02 0.02 0.03 0.04 0.05 0.05 0.04 0.04 0.04 0.04 0.04 0.05 0.03
0.00 0.00 0.00 0.01 0.02 0.03 0.03 0.03 0.04 0.04 0.04 0.04 0.03 0.03 0.04 0.03 0.02 0.02 0.03 0.03 0.03 0.04 0.03 0.04 0.04 0.03 0.04 0.03 0.03 0.03 0.03 0.03 0.03 0.04 0.06 0.07 0.07 0.05 0.05 0.05 0.04 0.05 0.04
0.01 0.00 0.00 0.01 0.01 0.02 0.03 0.03 0.04 0.05 0.04 0.05 0.04 0.05 0.05 0.05 0.04 0.04 0.05 0.05 0.04 0.04 0.04 0.03 0.03 0.05 0.03 0.04 0.05 0.04 0.04 0.04 0.04 0.04 0.06 0.09 0.10 0.09 0.08 0.06 0.06 0.06 0.06
0.02 0.00 0.00 0.00 0.00 0.00 0.01 0.02 0.04 0.06 0.05 0.05 0.05 0.06 0.05 0.05 0.06 0.05 0.04 0.05 0.05 0.04 0.04 0.05 0.05 0.06 0.05 0.06 0.04 0.04 0.05 0.05 0.04 0.04 0.05 0.06 0.07 0.08 0.08 0.06 0.06 0.04 0.04
0.01 0.00 0.00 0.00 0.01 0.01 0.01 0.02 0.04 0.05 0.04 0.05 0.05 0.07 0.06 0.06 0.06 0.05 0.05 0.06 0.08 0.08 0.07 0.08 0.08 0.08 0.08 0.08 0.07 0.07 0.07 0.05 0.04 0.04 0.05 0.08 0.08 0.07 0.07 0.07 0.07 0.05 0.04
0.01 0.00 0.00 0.00 0.01 0.01 0.02 0.02 0.04 0.05 0.05 0.05 0.05 0.05 0.05 0.06 0.06 0.05 0.07 0.07 0.09 0.09 0.09 0.10 0.09 0.08 0.09 0.09 0.09 0.08 0.05 0.05 0.05 0.05 0.05 0.06 0.06 0.06 0.07 0.08 0.07 0.05 0.05
0.01 0.00 0.00 0.00 0.00 0.01 0.01 0.02 0.03 0.04 0.05 0.05 0.05 0.04 0.06 0.07 0.06 0.06 0.07 0.07 0.08 0.08 0.07 0.07 0.08 0.07 0.08 0.07 0.08 0.07 0.05 0.06 0.06 0.04 0.04 0.04 0.05 0.05 0.06 0.07 0.07 0.05 0.06
0.01 0.00 0.00 0.00 0.01 0.01 0.01 0.01 0.02 0.04 0.05 0.05 0.05 0.04 0.05 0.06 0.07 0.07 0.06 0.07 0.08 0.08 0.09 0.07 0.06 0.06 0.06 0.05 0.06 0.06 0.04 0.05 0.04 0.03 0.05 0.06 0.05 0.04 0.05 0.06 0.08 0.07 0.06
0.01 0.01 0.01 0.01 0.01 0.01 0.01 0.01 0.02 0.04 0.05 0.05 0.05 0.04 0.04 0.05 0.06 0.07 0.05 0.06 0.06 0.07 0.07 0.06 0.06 0.06 0.05 0.04 0.05 0.05 0.05 0.05 0.04 0.03 0.05 0.05 0.04 0.04 0.04 0.05 0.07 0.09 0.08
0.01 0.01 0.01 0.01 0.01 0.02 0.01 0.02 0.02 0.04 0.06 0.05 0.04 0.04 0.05 0.05 0.05 0.05 0.05 0.05 0.05 0.06 0.06 0.07 0.07 0.06 0.05 0.04 0.05 0.05 0.04 0.05 0.05 0.06 0.08 0.07 0.04 0.04 0.04 0.06 0.08 0.07 0.10
0.01 0.01 0.01 0.01 0.02 0.03 0.02 0.02 0.03 0.07 0.11 0.08 0.06 0.05 0.05 0.05 0.05 0.04 0.05 0.04 0.05 0.05 0.07 0.08 0.08 0.07 0.05 0.04 0.05 0.03 0.02 0.03 0.05 0.05 0.06 0.06 0.06 0.07 0.06 0.05 0.07 0.09 0.10
0.00 0.01 0.01 0.02 0.02 0.03 0.04 0.06 0.10 0.12 0.11 0.08 0.07 0.06 0.06 0.05 0.05 0.05 0.05 0.05 0.06 0.07 0.08 0.09 0.09 0.07 0.06 0.05 0.04 0.03 0.03 0.03 0.03 0.04 0.05 0.07 0.07 0.09 0.07 0.06 0.07 0.09 0.10
0.00 0.00 0.01 0.02 0.03 0.04 0.05 0.06 0.07 0.07 0.06 0.07 0.07 0.07 0.06 0.06 0.07 0.07 0.06 0.05 0.06 0.06 0.07 0.07 0.08 0.07 0.07 0.05 0.04 0.04 0.04 0.04 0.04 0.04 0.04 0.05 0.07 0.07 0.07 0.08 0.08 0.09 0.08
0.00 0.01 0.01 0.02 0.03 0.04 0.04 0.03 0.04 0.06 0.08 0.09 0.08 0.07 0.06 0.06 0.06 0.06 0.06 0.06 0.06 0.06 0.05 0.06 0.07 0.07 0.07 0.06 0.06 0.06 0.06 0.05 0.05 0.05 0.04 0.05 0.06 0.06 0.05 0.06 0.08 0.08 0.10
0.00 0.01 0.01 0.02 0.04 0.04 0.05 0.04 0.05 0.06 0.07 0.07 0.07 0.06 0.07 0.07 0.07 0.06 0.05 0.04 0.05 0.05 0.05 0.06 0.06 0.07 0.06 0.06 0.07 0.09 0.09 0.09 0.08 0.06 0.05 0.05 0.05 0.05 0.05 0.04 0.06 0.08 0.08
0.00 0.01 0.01 0.02 0.03 0.04 0.05 0.04 0.04 0.04 0.05 0.05 0.04 0.04 0.05 0.06 0.07 0.08 0.08 0.05 0.03 0.03 0.04 0.05 0.05 0.05 0.05 0.05 0.05 0.06 0.07 0.08 0.07 0.06 0.05 0.04 0.04 0.04 0.04 0.04 0.04 0.05 0.06
0.01 0.01 0.02 0.03 0.04 0.03 0.02 0.03 0.02 0.02 0.03 0.03 0.03 0.04 0.05 0.07 0.07 0.07 0.08 0.07 0.05 0.03 0.04 0.05 0.04 0.04 0.05 0.03 0.03 0.03 0.03 0.04 0.05 0.06 0.07 0.05 0.03 0.04 0.04 0.04 0.03 0.04 0.04
0.01 0.02 0.02 0.03 0.03 0.04 0.03 0.03 0.02 0.02 0.02 0.02 0.01 0.02 0.04 0.05 0.06 0.07 0.08 0.08 0.08 0.06 0.05 0.05 0.04 0.05 0.06 0.04 0.03 0.02 0.02 0.03 0.03 0.04 0.05 0.05 0.05 0.04 0.04 0.04 0.04 0.06 0.06
0.02 0.03 0.03 0.03 0.04 0.04 0.04 0.03 0.02 0.02 0.03 0.03 0.02 0.02 0.04 0.05 0.06 0.06 0.07 0.07 0.08 0.08 0.07 0.06 0.06 0.05 0.05 0.04 0.04 0.04 0.04 0.04 0.05 0.05 0.04 0.03 0.04 0.04 0.03 0.04 0.05 0.07 0.07
0.02 0.02 0.02 0.03 0.03 0.04 0.04 0.03 0.02 0.02 0.04 0.05 0.04 0.04 0.04 0.04 0.05 0.05 0.05 0.06 0.07 0.06 0.06 0.04 0.04 0.03 0.02 0.02 0.01 0.02 0.04 0.06 0.07 0.07 0.06 0.04 0.04 0.04 0.03 0.03 0.06 0.07 0.07
0.02 0.02 0.01 0.01 0.01 0.02 0.02 0.01 0.01 0.01 0.03 0.05 0.05 0.04 0.04 0.04 0.04 0.05 0.05 0.06 0.05 0.06 0.06 0.04 0.03 0.02 0.02 0.01 0.01 0.01 0.02 0.04 0.06 0.06 0.07 0.05 0.04 0.03 0.02 0.02 0.04 0.05 0.05
0.02 0.02 0.01 0.01 0.01 0.01 0.01 0.02 0.02 0.03 0.03 0.03 0.02 0.03 0.03 0.03 0.03 0.04 0.06 0.06 0.06 0.06 0.05 0.04 0.03 0.03 0.02 0.02 0.01 0.02 0.02 0.03 0.05 0.07 0.06 0.05 0.04 0.03 0.02 0.02 0.02 0.03 0.03
0.01 0.02 0.01 0.01 0.01 0.02 0.02 0.02 0.02 0.02 0.02 0.02 0.03 0.04 0.04 0.04 0.04 0.06 0.08 0.07 0.06 0.05 0.05 0.05 0.04 0.03 0.03 0.02 0.02 0.03 0.03 0.03 0.04 0.06 0.06 0.05 0.04 0.04 0.03 0.03 0.02 0.02 0.03
0.00 0.01 0.01 0.01 0.01 0.01 0.01 0.02 0.02 0.01 0.01 0.02 0.03 0.03 0.05 0.06 0.06 0.07 0.09 0.07 0.07 0.07 0.05 0.04 0.04 0.03 0.02 0.02 0.03 0.03 0.04 0.04 0.04 0.05 0.05 0.05 0.04 0.04 0.03 0.03 0.02 0.02 0.03
0.01 0.01 0.01 0.02 0.02 0.01 0.01 0.01 0.01 0.01 0.02 0.02 0.03 0.03 0.04 0.04 0.04 0.05 0.05 0.04 0.04 0.04 0.04 0.03 0.02 0.02 0.02 0.02 0.02 0.03 0.04 0.04 0.04 0.04 0.04 0.05 0.05 0.04 0.03 0.03 0.02 0.02 0.02
0.01 0.01 0.01 0.02 0.02 0.02 0.02 0.01 0.01 0.01 0.02 0.02 0.03 0.03 0.03 0.04 0.04 0.04 0.04 0.03 0.03 0.02 0.02 0.01 0.02 0.01 0.02 0.02 0.03 0.04 0.04 0.04 0.04 0.03 0.04 0.04 0.04 0.03 0.02 0.02 0.02 0.02 0.03
MSLP
1007.96 1008.41 1008.83 1009.18 1009.45 1009.61 1009.67 1009.67 1009.64 1009.61 1009.63 1009.71 1009.86 1010.07 1010.31 1010.57 1010.81 1011.02 1011.20 1011.36 1011.52 1011.69 1011.90 1012.14 1012.42 1012.72 1013.01 1013.29 1013.54 1013.77 1013.97 1014.17 1014.37 1014.56 1014.75 1014.91 1015.01 1015.06 1015.02 1014.91 1014.76 1014.61 1014.50
1008.01 1008.51 1009.01 1009.44 1009.80 1010.04 1010.19 1010.27 1010.30 1010.32 1010.37 1010.47 1010.63 1010.83 1011.05 1011.29 1011.51 1011.71 1011.88 1012.04 1012.19 1012.37 1012.56 1012.78 1013.02 1013.27 1013.50 1013.72 1013.92 1014.10 1014.28 1014.46 1014.65 1014.85 1015.05 1015.22 1015.33 1015.37 1015.33 1015.21 1015.04 1014.86 1014.71
1007.93 1008.47 1009.03 1009.56 1010.01 1010.37 1010.63 1010.80 1010.92 1011.02 1011.12 1011.24 1011.40 1011.58 1011.77 1011.97 1012.14 1012.30 1012.45 1012.58 1012.72 1012.88 1013.05 1013.25 1013.45 1013.65 1013.84 1014.01 1014.15 1014.29 1014.43 1014.59 1014.78 1014.99 1015.20 1015.39 1015.54 1015.61 1015.60 1015.50 1015.33 1015.14 1014.95
1007.77 1008.32 1008.91 1009.50 1010.05 1010.51 1010.89 1011.17 1011.39 1011.57 1011.73 1011.89 1012.05 1012.22 1012.38 1012.53 1012.66 1012.77 1012.87 1012.97 1013.09 1013.23 1013.38 1013.55 1013.73 1013.90 1014.05 1014.17 1014.27 1014.37 1014.48 1014.61 1014.78 1014.99 1015.21 1015.44 1015.63 1015.75 1015.78 1015.73 1015.59 1015.40 1015.18
1007.61 1008.12 1008.72 1009.34 1009.94 1010.49 1010.95 1011.34 1011.65 1011.91 1012.14 1012.34 1012.52 1012.68 1012.82 1012.94 1013.03 1013.10 1013.17 1013.24 1013.33 1013.45 1013.59 1013.75 1013.91 1014.06 1014.18 1014.27 1014.34 1014.40 1014.47 1014.57 1014.72 1014.91 1015.14 1015.38 1015.61 1015.78 1015.87 1015.86 1015.76 1015.57 1015.34
1007.51 1007.97 1008.53 1009.15 1009.76 1010.34 1010.86 1011.32 1011.70 1012.03 1012.32 1012.56 1012.78 1012.95 1013.10 1013.20 1013.27 1013.33 1013.37 1013.43 1013.51 1013.62 1013.76 1013.91 1014.06 1014.20 1014.31 1014.38 1014.42 1014.45 1014.48 1014.54 1014.65 1014.82 1015.03 1015.28 1015.52 1015.72 1015.85 1015.89 1015.81 1015.64 1015.39
1007.57 1007.95 1008.45 1009.01 1009.60 1010.17 1010.70 1011.18 1011.61 1011.99 1012.33 1012.62 1012.87 1013.08 1013.25 1013.37 1013.45 1013.50 1013.55 1013.60 1013.68 1013.79 1013.92 1014.08 1014.24 1014.37 1014.48 1014.54 1014.56 1014.56 1014.56 1014.58 1014.64 1014.77 1014.95 1015.17 1015.41 1015.62 1015.77 1015.83 1015.78 1015.61 1015.34
1007.80 1008.11 1008.53 1009.02 1009.54 1010.06 1010.57 1011.04 1011.47 1011.87 1012.25 1012.58 1012.88 1013.13 1013.34 1013.49 1013.59 1013.67 1013.73 1013.79 1013.88 1013.99 1014.13 1014.29 1014.45 1014.60 1014.70 1014.76 1014.78 1014.76 1014.72 1014.71 1014.73 1014.80 1014.94 1015.12 1015.33 1015.53 1015.68 1015.74 1015.70 1015.54 1015.26
1008.21 1008.45 1008.79 1009.19 1009.63 1010.07 1010.51 1010.94 1011.36 1011.76 1012.15 1012.52 1012.86 1013.16 1013.41 1013.60 1013.75 1013.85 1013.94 1014.02 1014.11 1014.23 1014.38 1014.54 1014.70 1014.85 1014.96 1015.03 1015.04 1015.02 1014.97 1014.93 1014.91 1014.94 1015.03 1015.16 1015.33 1015.50 1015.63 1015.69 1015.65 1015.49 1015.21
1008.73 1008.92 1009.19 1009.50 1009.85 1010.21 1010.57 1010.94 1011.31 1011.70 1012.09 1012.47 1012.84 1013.18 1013.47 1013.71 1013.90 1014.04 1014.15 1014.25 1014.35 1014.47 1014.62 1014.78 1014.94 1015.09 1015.21 1015.28 1015.31 1015.30 1015.25 1015.20 1015.16 1015.16 1015.20 1015.30 1015.42 1015.56 1015.67 1015.71 1015.67 1015.52 1015.26
1009.27 1009.43 1009.64 1009.88 1010.14 1010.41 1010.70 1011.00 1011.33 1011.68 1012.05 1012.44 1012.82 1013.18 1013.51 1013.79 1014.01 1014.19 1014.32 1014.44 1014.55 1014.67 1014.81 1014.96 1015.12 1015.27 1015.39 1015.48 1015.53 1015.54 1015.51 1015.46 1015.43 1015.41 1015.44 1015.50 1015.60 1015.71 1015.80 1015.84 1015.82 1015.69 1015.46
1009.73 1009.88 1010.05 1010.23 1010.42 1010.62 1010.83 1011.07 1011.35 1011.66 1012.01 1012.39 1012.77 1013.14 1013.49 1013.79 1014.04 1014.24 1014.41 1014.54 1014.66 1014.78 1014.91 1015.05 1015.20 1015.35 1015.48 1015.59 1015.66 1015.69 1015.69 1015.67 1015.66 1015.65 1015.68 1015.73 1015.81 1015.91 1016.00 1016.05 1016.05 1015.96 1015.78
1010.05 1010.19 1010.33 1010.47 1010.61 1010.75 1010.91 1011.10 1011.33 1011.61 1011.93 1012.28 1012.65 1013.02 1013.37 1013.69 1013.96 1014.19 1014.37 1014.52 1014.66 1014.79 1014.92 1015.06 1015.20 1015.34 1015.48 1015.59 1015.68 1015.74 1015.78 1015.80 1015.81 1015.83 1015.87 1015.93 1016.01 1016.11 1016.21 1016.29 1016.32 1016.29 1016.17
1010.18 1010.33 1010.45 1010.56 1010.66 1010.77 1010.90 1011.05 1011.25 1011.49 1011.78 1012.11 1012.45 1012.81 1013.15 1013.48 1013.76 1014.01 1014.22 1014.41 1014.56 1014.71 1014.85 1014.99 1015.13 1015.27 1015.41 1015.53 1015.63 1015.71 1015.78 1015.83 1015.87 1015.92 1015.98 1016.06 1016.16 1016.28 1016.39 1016.49 1016.57 1016.59 1016.55
1010.16 1010.30 1010.41 1010.51 1010.60 1010.69 1010.79 1010.93 1011.10 1011.31 1011.57 1011.86 1012.18 1012.51 1012.84 1013.17 1013.47 1013.74 1013.99 1014.21 1014.40 1014.58 1014.74 1014.90 1015.04 1015.18 1015.31 1015.43 1015.54 1015.64 1015.72 1015.80 1015.87 1015.95 1016.03 1016.13 1016.24 1016.37 1016.50 1016.63 1016.73 1016.80 1016.83
1010.02 1010.16 1010.27 1010.37 1010.45 1010.54 1010.64 1010.76 1010.92 1011.10 1011.33 1011.58 1011.87 1012.17 1012.48 1012.80 1013.11 1013.42 1013.70 1013.97 1014.21 1014.43 1014.63 1014.80 1014.96 1015.11 1015.24 1015.35 1015.46 1015.56 1015.66 1015.75 1015.84 1015.94 1016.04 1016.15 1016.27 1016.40 1016.54 1016.67 1016.80 1016.90 1016.97
1009.82 1009.97 1010.09 1010.19 1010.28 1010.38 1010.48 1010.60 1010.74 1010.91 1011.10 1011.32 1011.56 1011.82 1012.11 1012.42 1012.74 1013.06 1013.39 1013.70 1013.99 1014.26 1014.51 1014.71 1014.89 1015.05 1015.18 1015.30 1015.41 1015.52 1015.62 1015.72 1015.83 1015.94 1016.05 1016.17 1016.29 1016.41 1016.54 1016.67 1016.79 1016.89 1016.98
1009.61 1009.77 1009.91 1010.03 1010.14 1010.24 1010.36 1010.48 1010.61 1010.75 1010.91 1011.09 1011.28 1011.51 1011.76 1012.05 1012.36 1012.70 1013.05 1013.40 1013.74 1014.06 1014.35 1014.60 1014.80 1014.98 1015.13 1015.26 1015.38 1015.49 1015.61 1015.73 1015.86 1015.98 1016.11 1016.23 1016.35 1016.46 1016.56 1016.66 1016.75 1016.83 1016.90
1009.39 1009.58 1009.74 1009.89 1010.02 1010.15 1010.27 1010.40 1010.52 1010.64 1010.76 1010.89 1011.04 1011.22 1011.43 1011.68 1011.97 1012.31 1012.67 1013.04 1013.42 1013.77 1014.10 1014.38 1014.62 1014.83 1015.00 1015.16 1015.30 1015.45 1015.60 1015.76 1015.91 1016.07 1016.22 1016.35 1016.47 1016.57 1016.64 1016.70 1016.75 1016.79 1016.82
1009.16 1009.38 1009.57 1009.74 1009.90 1010.05 1010.19 1010.31 1010.43 1010.53 1010.62 1010.71 1010.81 1010.93 1011.09 1011.30 1011.55 1011.86 1012.21 1012.58 1012.96 1013.34 1013.69 1014.01 1014.29 1014.53 1014.75 1014.95 1015.14 1015.34 1015.54 1015.75 1015.96 1016.17 1016.36 1016.52 1016.65 1016.74 1016.80 1016.82 1016.83 1016.82 1016.80
1008.86 1009.11 1009.33 1009.53 1009.71 1009.88 1010.03 1010.16 1010.27 1010.35 1010.42 1010.47 1010.53 1010.60 1010.71 1010.86 1011.06 1011.32 1011.64 1011.99 1012.36 1012.73 1013.10 1013.44 1013.75 1014.04 1014.31 1014.57 1014.83 1015.09 1015.37 1015.66 1015.94 1016.22 1016.47 1016.68 1016.84 1016.95 1017.00 1017.01 1016.99 1016.94 1016.88
1008.45 1008.72 1008.96 1009.18 1009.37 1009.55 1009.71 1009.85 1009.97 1010.05 1010.10 1010.13 1010.16 1010.19 1010.24 1010.34 1010.48 1010.69 1010.95 1011.26 1011.60 1011.96 1012.32 1012.68 1013.02 1013.35 1013.68 1014.01 1014.34 1014.69 1015.06 1015.43 1015.80 1016.16 1016.48 1016.75 1016.97 1017.12 1017.20 1017.22 1017.19 1017.13 1017.04
1007.90 1008.17 1008.41 1008.62 1008.82 1009.01 1009.19 1009.34 1009.46 1009.55 1009.61 1009.64 1009.64 1009.65 1009.66 1009.71 1009.81 1009.96 1010.16 1010.42 1010.72 1011.06 1011.42 1011.78 1012.16 1012.53 1012.91 1013.31 1013.72 1014.15 1014.59 1015.05 1015.50 1015.94 1016.33 1016.68 1016.96 1017.17 1017.30 1017.36 1017.36 1017.32 1017.25
1007.19 1007.44 1007.66 1007.86 1008.05 1008.24 1008.42 1008.59 1008.73 1008.84 1008.92 1008.96 1008.97 1008.96 1008.96 1008.98 1009.04 1009.15 1009.31 1009.53 1009.80 1010.12 1010.47 1010.85 1011.25 1011.66 1012.09 1012.54 1013.01 1013.51 1014.02 1014.53 1015.05 1015.54 1016.00 1016.41 1016.76 1017.03 1017.23 1017.36 1017.42 1017.44 1017.42
1006.36 1006.55 1006.73 1006.90 1007.07 1007.25 1007.43 1007.61 1007.78 1007.91 1008.02 1008.09 1008.12 1008.14 1008.14 1008.16 1008.20 1008.29 1008.43 1008.63 1008.89 1009.20 1009.56 1009.96 1010.38 1010.83 1011.31 1011.80 1012.31 1012.84 1013.38 1013.93 1014.47 1015.00 1015.50 1015.95 1016.35 1016.69 1016.96 1017.17 1017.33 1017.43 1017.50
1005.44 1005.57 1005.68 1005.81 1005.94 1006.10 1006.28 1006.46 1006.65 1006.81 1006.95 1007.05 1007.12 1007.16 1007.19 1007.23 1007.29 1007.39 1007.54 1007.75 1008.03 1008.36 1008.74 1009.17 1009.63 1010.12 1010.62 1011.14 1011.67 1012.21 1012.75 1013.29 1013.83 1014.35 1014.85 1015.33 1015.76 1016.15 1016.50 1016.80 1017.06 1017.27 1017.45
Thickness
5815 5814 5810 5806 5801 5796 5790 5786 5782 5779 5776 5772 5768 5764 5761 5761 5760 5757 5755 5753 5750 5749 5747 5745 5743 5742 5740 5739 5738 5736 5734 5733 5735 5732 5730 5733 5736 5736 5737 5737 5736 5734 5733
5807 5806 5805 5800 5794 5789 5786 5782 5778 5775 5772 5769 5766 5763 5761 5759 5757 5755 5752 5750 5747 5745 5744 5741 5739 5738 5736 5735 5734 5732 5729 5730 5732 5727 5723 5719 5723 5728 5734 5733 5731 5731 5730
5799 5798 5797 5793 5790 5785 5782 5779 5775 5772 5769 5766 5764 5761 5758 5755 5752 5749 5747 5746 5744 5741 5738 5738 5736 5735 5733 5730 5729 5728 5725 5723 5726 5727 5721 5714 5712 5717 5724 5727 5727 5727 5727
5797 5794 5792 5789 5786 5784 5780 5776 5771 5768 5765 5762 5758 5754 5750 5746 5746 5745 5744 5742 5741 5738 5735 5733 5732 5730 5729 5727 5726 5725 5723 5721 5719 5722 5723 5721 5718 5712 5711 5718 5722 5724 5723
5794 5789 5788 5786 5784 5782 5777 5771 5766 5762 5760 5757 5754 5750 5747 5745 5744 5742 5739 5738 5737 5735 5732 5729 5727 5726 5724 5723 5722 5721 5719 5718 5717 5717 5718 5718 5717 5716 5709 5707 5713 5716 5719
5788 5785 5784 5782 5779 5777 5773 5767 5760 5756 5754 5751 5748 5745 5742 5739 5737 5735 5734 5733 5732 5730 5727 5725 5723 5721 5720 5718 5717 5716 5716 5715 5715 5715 5715 5713 5711 5710 5709 5706 5706 5707 5712
5781 5777 5774 5772 5769 5766 5763 5760 5754 5749 5747 5744 5741 5739 5737 5735 5732 5731 5729 5728 5726 5724 5722 5721 5718 5717 5715 5715 5713 5712 5712 5712 5711 5711 5711 5711 5711 5711 5709 5705 5703 5703 5706
5775 5770 5767 5763 5760 5757 5754 5751 5747 5743 5740 5737 5735 5733 5732 5730 5728 5727 5726 5724 5722 5720 5718 5716 5714 5713 5712 5711 5710 5709 5708 5708 5707 5707 5707 5707 5708 5709 5707 5704 5700 5697 5699
5765 5762 5759 5756 5753 5749 5746 5743 5739 5736 5734 5731 5729 5727 5725 5724 5723 5722 5721 5719 5717 5716 5713 5712 5710 5708 5707 5706 5705 5704 5704 5704 5703 5703 5703 5703 5704 5705 5705 5703 5701 5694 5689
5755 5753 5751 5748 5746 5742 5738 5735 5732 5728 5726 5724 5722 5721 5719 5718 5717 5715 5714 5713 5711 5710 5708 5707 5705 5703 5702 5700 5699 5698 5699 5698 5698 5698 5698 5698 5699 5700 5701 5700 5699 5696 5692
5748 5745 5742 5740 5737 5733 5729 5725 5723 5720 5717 5716 5714 5713 5712 5710 5709 5708 5707 5706 5705 5703 5702 5700 5699 5697 5696 5695 5694 5693 5694 5693 5693 5694 5694 5694 5694 5694 5695 5695 5694 5693 5691
5741 5737 5733 5729 5725 5721 5718 5715 5714 5712 5710 5709 5707 5705 5704 5703 5702 5701 5700 5699 5698 5697 5696 5694 5692 5691 5690 5690 5689 5688 5688 5688 5688 5689 5689 5689 5690 5689 5689 5689 5688 5688 5688
5731 5728 5723 5719 5715 5711 5708 5706 5705 5704 5703 5701 5698 5696 5695 5694 5693 5693 5692 5692 5691 5689 5689 5687 5686 5685 5684 5683 5684 5683 5683 5683 5684 5684 5684 5684 5683 5682 5683 5683 5683 5683 5683
5721 5717 5713 5708 5705 5702 5699 5697 5696 5696 5694 5692 5689 5687 5686 5686 5686 5685 5685 5684 5683 5682 5681 5680 5679 5679 5678 5678 5677 5677 5676 5677 5678 5679 5679 5678 5678 5677 5677 5678 5677 5677 5676
5711 5707 5702 5699 5696 5694 5691 5690 5688 5686 5685 5682 5680 5679 5679 5678 5678 5677 5676 5676 5675 5675 5674 5673 5673 5672 5672 5671 5670 5670 5670 5670 5671 5672 5673 5673 5674 5673 5672 5673 5672 5671 5669
5702 5699 5695 5691 5688 5685 5683 5681 5680 5679 5677 5674 5672 5672 5672 5671 5669 5668 5668 5667 5666 5667 5666 5665 5665 5665 5665 5663 5662 5662 5663 5664 5665 5665 5666 5668 5668 5668 5668 5668 5668 5666 5664
5692 5688 5685 5682 5680 5678 5676 5673 5673 5672 5670 5667 5666 5665 5664 5663 5662 5662 5660 5659 5658 5658 5657 5657 5658 5658 5657 5655 5655 5655 5655 5657 5659 5660 5660 5662 5665 5663 5663 5662 5663 5661 5661
5682 5679 5677 5675 5674 5672 5670 5667 5666 5664 5662 5660 5658 5658 5657 5656 5655 5654 5653 5652 5651 5650 5651 5651 5651 5651 5650 5648 5648 5648 5649 5651 5653 5654 5655 5654 5655 5657 5656 5656 5657 5657 5657
5676 5672 5671 5669 5667 5665 5662 5659 5657 5656 5654 5652 5650 5650 5649 5648 5647 5646 5646 5645 5644 5644 5644 5644 5644 5644 5643 5641 5641 5641 5643 5644 5646 5647 5648 5649 5648 5648 5648 5648 5649 5650 5651
5670 5667 5664 5663 5659 5657 5655 5652 5649 5647 5645 5645 5644 5643 5642 5641 5639 5639 5639 5639 5638 5637 5638 5638 5638 5638 5637 5636 5635 5634 5635 5637 5638 5640 5640 5641 5641 5641 5641 5641 5641 5642 5643
5662 5660 5657 5654 5652 5650 5647 5643 5641 5639 5639 5638 5637 5636 5634 5633 5633 5632 5631 5631 5631 5631 5630 5631 5632 5632 5632 5629 5628 5627 5628 5629 5631 5633 5634 5634 5634 5633 5633 5633 5634 5635 5637
5655 5653 5649 5646 5644 5642 5638 5635 5633 5633 5632 5631 5630 5628 5627 5627 5627 5625 5624 5623 5623 5624 5624 5624 5624 5625 5625 5624 5622 5621 5620 5621 5622 5625 5627 5627 5626 5626 5626 5627 5629 5630 5630
5647 5645 5642 5639 5637 5634 5632 5628 5626 5626 5624 5623 5622 5621 5621 5620 5619 5618 5617 5616 5616 5616 5617 5617 5617 5618 5619 5618 5617 5615 5614 5614 5614 5617 5618 5618 5618 5619 5620 5622 5623 5623 5625
5640 5638 5635 5632 5629 5628 5626 5623 5621 5619 5617 5616 5615 5614 5614 5613 5613 5611 5611 5610 5609 5609 5609 5609 5609 5610 5611 5610 5609 5608 5607 5606 5607 5608 5609 5609 5611 5612 5614 5616 5617 5619 5621
5634 5631 5628 5625 5623 5621 5619 5618 5616 5613 5611 5610 5609 5609 5608 5608 5606 5605 5604 5604 5603 5602 5601 5601 5601 5601 5601 5600 5598 5598 5599 5600 5600 5599 5601 5603 5605 5607 5609 5611 5613 5615 5616
5628 5625 5622 5619 5617 5615 5613 5612 5610 5608 5605 5604 5603 5602 5602 5602 5601 5599 5598 5596 5596 5595 5593 5593 5592 5594 5592 5591 5590 5590 5590 5591 5591 5591 5594 5597 5599 5602 5604 5606 5608 5609 5611